Location: Peebles
(55.6412°N, 3.1714°W)
Time: 06:30:06
(UTC+01:00)

deb NNS O-4 - Pass Details

Date: 29 June 2022
Orbit: 977 x 1074 km, 89.9° (Epoch: 16 August)

Event Time Altitude Azimuth Distance (km) Brightness Sun altitude
Rises 01:07:32 0° 129° (SE) 3,863 ? -11.1°
Reaches altitude 10° 01:10:34 10° 117° (ESE) 2,910 ? -11.1°
Maximum altitude 01:15:43 25° 66° (ENE) 2,031 ? -11.1°
Drops below altitude 10° 01:20:52 10° 15° (NNE) 2,900 ? -11.1°
Sets 01:23:52 0° 3° (N) 3,846 ? -11.1°
